Regional Weather Roundup
Issued by NWS

Home | Current Version | Previous Version | Text Only | Print | Product List | Glossary On
Versions: 1 2 3 4 5 6 7 8 9 10 11 12 13 14 15 16 17 18 19 20 21 22 23 24 25 26 27
000
ASUS44 KBMX 221010
RWRAL

ALABAMA REGIONAL WEATHER ROUNDUP
NATIONAL WEATHER SERVICE BIRMINGHAM AL
400 AM CST WED FEB 22 2017

NOTE: "FAIR" INDICATES FEW OR NO CLOUDS BELOW 12,000 FEET
WITH NO SIGNIFICANT WEATHER AND/OR OBSTRUCTIONS TO VISIBILITY.

THE REMARK "TC" DENOTES TEMPERATURE IN DEGREES CELSIUS.

ALZ001>011-014-016>018-020-221100-
NORTH ALABAMA

CITY           SKY/WX    TMP DP  RH WIND       PRES   REMARKS
MUSCLE SHOALS  CLOUDY    58  55  90 N5        29.87F
HUNTSVILLE     CLOUDY    59  58  96 E3        29.86S
DECATUR        CLOUDY    57  57 100 N3        29.87R
HALEYVILLE     CLOUDY    56  55  97 CALM      29.87F FOG
GADSDEN        LGT RAIN  59  58  96 NE8       29.86F
$$

ALZ012-013-022-023-030>036-040>044-221100-
WEST CENTRAL ALABAMA

CITY           SKY/WX    TMP DP  RH WIND       PRES   REMARKS
TUSCALOOSA     CLOUDY    59  58  96 NE5       29.83F
$$

ALZ015-024>027-033>036-040>044-221100-
CENTRAL ALABAMA

CITY           SKY/WX    TMP DP  RH WIND       PRES   REMARKS
BIRMINGHAM     CLOUDY    60  58  92 CALM      29.86R
MONTGOMERY     CLOUDY    60  56  86 NW3       29.81F FOG
SHELBY CO ARPT LGT RAIN  59  59 100 CALM      29.84S FOG
MAXWELL AFB    DRIZZLE   59  59 100 NW3       29.80F FOG
GREENVILLE     LGT RAIN  59  56  89 NE3       29.79F VSB 1
$$

ALZ019-021-028-029-037-038-045>048-221100-
EAST CENTRAL ALABAMA

CITY           SKY/WX    TMP DP  RH WIND       PRES   REMARKS
ANNISTON       LGT RAIN  59  58  96 CALM      29.85R
ALEXANDER CITY CLOUDY    59  58  98 CALM      29.83S
AUBURN         RAIN      59  59 100 E5        29.84S FOG
$$

ALZ051>064-221100-
SOUTHWEST ALABAMA

CITY           SKY/WX    TMP DP  RH WIND       PRES   REMARKS
MOBILE         FOG       58  57  97 CALM      29.79F VSB 3/4
BROOKLEY FIELD MOCLDY    59  58  96 N5        29.80S
EVERGREEN      CLOUDY    59  57  93 CALM      29.80S
$$

ALZ049-050-065>069-221100-
SOUTHEAST ALABAMA

CITY           SKY/WX    TMP DP  RH WIND       PRES   REMARKS
DOTHAN         LGT RAIN  59  59 100 E7        29.82F
OZARK          DRIZZLE   59  59 100 NE5       29.80F
TROY           LGT RAIN  58  58 100 CALM      29.81R FOG
EUFAULA        HVY RAIN  61  59  93 NE6       29.81S FOG
$$




USA.gov is the U.S. government's official web portal to all federal, state and local government web resources and services.